Greenville-Spartanburg International Airport (GSP)

 

Airport Diagram
Current Weather/Forecast (IFR Conditions)
METAR KGSP 260153Z 03005KT 8SM OVC005 17/17 A3005 RMK AO2 SLP168 T01720167
TAF KGSP 260147Z 2602/2624 02004KT 5SM BR OVC004 FM261300 04003KT 5SM BR BKN009 FM261600 10004KT P6SM SCT020 SCT030

All Charts
General
Chart Name Download
AIRPORT DIAGRAM
TAKEOFF MINIMUMS
ALTERNATE MINIMUMS

Departures
Chart Name Download
BIMMR TWO (RNAV)
BWALL TWO (RNAV)

Arrivals
Chart Name Download
JUNNR THREE (RNAV)
MCHLN TWO (RNAV)
RCTOR TWO (RNAV)
WORXS TWO (RNAV)

Approaches
Chart Name Download
ILS OR LOC RWY 04
ILS OR LOC RWY 22
ILS RWY 04 (SA CAT I)
ILS RWY 04 (CAT II - III)
RNAV (GPS) RWY 04
RNAV (GPS) RWY 22


Inbound Traffic (Arrivals)

No inbound traffic.


Outbound Traffic (Departures)

No outbound traffic.